Regional Weather Roundup
Issued by NWS

Home | Current Version | Previous Version | Graphics & Text | Print | Product List | Glossary On
Versions: 1 2 3 4 5 6 7 8 9 10 11 12 13 14 15 16 17 18 19 20 21 22 23 24 25 26 27 28 29 30 31 32 33 34 35 36 37 38 39 40 41 42 43 44 45 46 47 48 49 50
000
ASUS45 KBOU 061810
RWRCO

WEATHER ROUNDUP FOR COLORADO
NATIONAL WEATHER SERVICE DENVER/BOULDER CO
1200 PM MDT MON JUL 06 2015

NOTE: "FAIR" INDICATES FEW OR NO CLOUDS BELOW 12000 FEET WITH NO
SIGNIFICANT WEATHER AND/OR OBSTRUCTIONS TO VISIBILITY.

COZ001>005-013-030-031-061900-
...NORTHWEST COLORADO...

CITY           SKY/WX    TMP DP  RH WIND       PRES   REMARKS
CRAIG          MOSUNNY   74  55  51 CALM      30.27F
HAYDEN         SUNNY     70  52  52 W5        30.28F
MEEKER         MOSUNNY   73  56  54 VRB6      30.27F
MOUNT WERNER   NOT AVBL
STEAMBOAT SPGS MOSUNNY   66  52  59 CALM      30.30F
WALDEN         CLOUDY    55  50  82 NW6       30.38S
$$

COZ006>008-011-061900-
...WEST CENTRAL VALLEYS...

CITY           SKY/WX    TMP DP  RH WIND       PRES   REMARKS
GRAND JUNCTION MOSUNNY   80  57  45 S9        30.15F
MONTROSE       MOSUNNY   80  53  39 W12       30.23F
EAGLE          PTSUNNY   73  52  46 CALM      30.29F
RIFLE          PTSUNNY   64  56  75 SE5       30.24S
DELTA          CLOUDY    75  58  56 SW7       30.20S
NUCLA          MOSUNNY   77  46  33 NE10G16   30.27S
$$

COZ017>023-064>068-061900-
...SOUTHWEST COLORADO...

CITY           SKY/WX    TMP DP  RH WIND       PRES   REMARKS
DURANGO        MOSUNNY   76  49  38 VRB5      30.24F
CORTEZ         PTSUNNY   84  50  30 NW9G18    30.19F
PAGOSA SPRINGS MOSUNNY   73  45  37 SW3       30.31F
TELLURIDE      PTSUNNY   67  49  51 W9        30.44S
WOLF CREEK PAS NOT AVBL
$$

COZ009-010-012-014-032>034-037-058>063-061900-
...CENTRAL COLORADO...

CITY           SKY/WX    TMP DP  RH WIND       PRES   REMARKS
ASPEN          PTSUNNY   69  48  47 N9        30.34F
BUENA VISTA    PTSUNNY   72  43  35 E3        30.32F
COPPER MTN     PTSUNNY   54  43  66 SW5       30.64R
BERTHOUD PASS  CLOUDY    43  32  65 NW13G20   30.67R
COTTONWOOD PAS   N/A    N/A N/A N/A MISG      30.31
GUNNISON       MOSUNNY   68  48  49 CALM      30.36F
KREMMLING      PTSUNNY   68  54  60 SW3       30.34F
LEADVILLE      CLOUDY    59  43  55 N10       30.47R
MONARCH PASS   CLOUDY    52  43  71 W7G16     30.72F
SALIDA         PTSUNNY   77  41  27 NW5       30.37F
SUNLIGHT       PTSUNNY   57  52  82 SW3       30.58F
WILKERSON PASS CLOUDY    52  45  76 E7        30.61R
$$

COZ069>075-061900-
...SAN LUIS VALLEY/SANGRE DE CRISTO MOUNTAINS...

CITY           SKY/WX    TMP DP  RH WIND       PRES   REMARKS
ALAMOSA        PTSUNNY   73  49  42 MISG      30.31R
LA VETA PASS   LGT RAIN  48  46  93 MISG      30.51S VSB<1/4
SAGUACHE       PTSUNNY   70  46  43 CALM      30.34S
$$

COZ035-036-038>040-061900-
...NORTHERN COLORADO FRONT RANGE...

CITY           SKY/WX    TMP DP  RH WIND       PRES   REMARKS
DENVER INTL AP CLOUDY    59  57  93 N9        30.30R FOG
DMNS CITY PARK   N/A     61  58  90 NE5G20    30.30R
AURORA         LGT RAIN  59  59 100 N9        30.31R FOG
FRONT RANGE AP CLOUDY    59  55  88 N9        30.30R
ERIE MUNI ARPT CLOUDY    64  58  81 NE8       30.28S
BOULDER MUN AP CLOUDY    61  59  94 NE3       30.30S
CENTENNIAL     LGT RAIN  59  58  96 NE12      30.31R VSB 1
BROOMFIELD     DRIZZLE   59  57  94 N9        30.32R
FORT COLLINS   CLOUDY    61  57  88 N6        30.31R
LONGMONT       RAIN      64  59  84 NW6       30.31R
$$

COZ041-046-047-076>085-087-088-061900-
...PIKES PEAK/PALMER DIVIDE AND SOUTHERN FOOTHILLS...

CITY           SKY/WX    TMP DP  RH WIND       PRES   REMARKS
COLO. SPRINGS  PTSUNNY   72  55  55 N17       30.27R
A. F. ACADEMY  PTSUNNY   67  55  67 N14       30.29S
ELLICOTT       PTSUNNY  N/A N/A N/A NE18      30.27R
FALCON         PTSUNNY   68  55  63 N13G20    30.33S
FORT CARSON    PTSUNNY   68  59  73 N7        30.24S
LIMON          CLOUDY    64  57  78 N17       30.27R
MONUMENT HILL  LGT RAIN  55  54  94 MISG      30.35S
TRINIDAD       LGT RAIN  66  60  81 CALM      30.26S
$$

COZ042>045-048>051-090-091-061900-
...NORTHEAST COLORADO...

CITY           SKY/WX    TMP DP  RH WIND       PRES   REMARKS
GREELEY ARPT   CLOUDY    64  55  72 NE9       30.28S
AKRON          CLOUDY    63  55  75 N18       30.25R
BURLINGTON     CLOUDY    66  59  78 N17       30.18R
WRAY           CLOUDY    68  56  65 N15G22    30.19R
STERLING       CLOUDY    66  55  68 NE13        N/A  HAZE
HOLYOKE        PTSUNNY   73  55  53 N17G23    30.20R
FORT MORGAN    CLOUDY    61  55  78 N15       30.27S
$$

COZ086-089-092>099-061900-
...SOUTHEAST COLORADO...

CITY           SKY/WX    TMP DP  RH WIND       PRES   REMARKS
PUEBLO         PTSUNNY   81  56  42 E12       30.17S
LA JUNTA       LGT RAIN  70  61  73 N17       30.19R
LAMAR          CLOUDY    71  60  68 NE15      30.14R
SPRINGFIELD      N/A     70  60  70 N21G29    30.15R
$$



USA.gov is the U.S. government's official web portal to all federal, state and local government web resources and services.